Weather History for Edinburg, TX

Change the Weather History Date:

Tuesday, August 6, 2013

  Actual Average (KMFE) Record (KMFE)
Temperature  
Mean Temperature 94 °F 88 °F  
Max Temperature 106 °F 99 °F 106 °F (2013)
Min Temperature 81 °F 77 °F 68 °F (1975)
Degree Days  
Heating Degree Days 0 0  
Month to date heating degree days 0  
Since 1 June heating degree days 0  
Since 1 July heating degree days 0  
Cooling Degree Days 28 23  
Month to date cooling degree days 137  
Year to date cooling degree days 2694  
Since 1 June cooling degree days 1439  
Growing Degree Days 44 (Base 50)    
Moisture  
Dew Point 69 °F    
Average Humidity 52    
Maximum Humidity 78    
Minimum Humidity 19    
Precipitation  
Precipitation 0.00 in 0.05 in 0.87 in (1941)
Month to date precipitation 0.29  
Year to date precipitation 11.65  
Sea Level Pressure  
Sea Level Pressure 29.89 in    
Wind  
Wind Speed 15 mph (SSE)    
Max Wind Speed 26 mph    
Max Gust Speed 32 mph    
Visibility 6 miles    
Events      
T = Trace of Precipitation, MM = Missing Value Source: NWS Daily Summary

Daily Weather History Graph

Daily Weather History Graph

Search for Another Location

Airport:

Trip Planner

Search our weather history database for the weather conditions in past years. The results will help you decide how hot, cold, wet, or windy it might be!

Date:

Astronomy

Aug. 06, 2013 Rise Set
Actual Time 7:00 AM CDT 8:15 PM CDT
Civil Twilight 6:35 AM CDT 8:40 PM CDT
Nautical Twilight 6:06 AM CDT 9:09 PM CDT
Astronomical Twilight 5:36 AM CDT 9:39 PM CDT
Moon 6:47 AM CDT (8/6) 7:59 PM CDT (8/6)
Length of Visible Light 14h 04m
Length of Day
13h 15m
Waning Crescent, 0% of the Moon is Illuminated
Aug 6
Waning Crescent
Aug 6
New
Aug 14
First Quarter
Aug 20
Full
Aug 28
Last Quarter

Hourly Weather History & Observations

Time (CDT) Temp. Heat Index Dew Point Humidity Pressure Visibility Wind Dir Wind Speed Gust Speed Precip Events Conditions
12:15 AM 84.2 °F 91.6 °F 74.3 °F 72% 29.95 in 7.0 mi SSE 13.8 mph 19.6 mph N/A   Clear
12:35 AM 84.2 °F 91.6 °F 74.5 °F 72% 29.94 in 7.0 mi SSE 13.8 mph - N/A   Clear
12:55 AM 84.2 °F 91.9 °F 74.7 °F 73% 29.94 in 7.0 mi SSE 11.5 mph 19.6 mph N/A   Clear
1:15 AM 83.8 °F 91.4 °F 74.7 °F 74% 29.94 in 7.0 mi SSE 12.7 mph - N/A   Clear
1:35 AM 83.7 °F 91.3 °F 74.8 °F 75% 29.94 in 7.0 mi SSE 12.7 mph - N/A   Clear
1:55 AM 83.7 °F 91.3 °F 74.8 °F 75% 29.94 in 7.0 mi SSE 10.4 mph - N/A   Clear
2:15 AM 83.3 °F 90.8 °F 74.8 °F 76% 29.94 in 7.0 mi SSE 11.5 mph - N/A   Clear
2:35 AM 83.3 °F 90.8 °F 74.8 °F 76% 29.94 in 7.0 mi SSE 10.4 mph - N/A   Clear
2:55 AM 83.3 °F 90.5 °F 74.7 °F 75% 29.93 in 7.0 mi SSE 12.7 mph 19.6 mph N/A   Clear
3:15 AM 83.3 °F 90.5 °F 74.7 °F 75% 29.92 in 7.0 mi SSE 10.4 mph - N/A   Clear
3:35 AM 83.3 °F 90.8 °F 74.8 °F 76% 29.92 in 7.0 mi SSE 11.5 mph 16.1 mph N/A   Clear
3:55 AM 83.3 °F 90.8 °F 75.2 °F 76% 29.91 in 7.0 mi SSE 9.2 mph - N/A   Clear
4:15 AM 83.3 °F 90.8 °F 74.8 °F 76% 29.91 in 5.0 mi SSE 10.4 mph - N/A   Haze
4:35 AM 83.3 °F 90.2 °F 74.3 °F 74% 29.91 in 7.0 mi SSE 10.4 mph 17.3 mph N/A   Clear
4:55 AM 83.3 °F 89.9 °F 73.9 °F 73% 29.91 in 7.0 mi SSE 9.2 mph - N/A   Clear
5:15 AM 82.9 °F 89.4 °F 73.9 °F 74% 29.91 in 7.0 mi SSE 9.2 mph - N/A   Clear
5:35 AM 82.8 °F 89.0 °F 73.8 °F 74% 29.91 in 7.0 mi SSE 8.1 mph - N/A   Clear
5:55 AM 82.4 °F 88.4 °F 73.6 °F 75% 29.92 in 7.0 mi SSE 9.2 mph 16.1 mph N/A   Clear
6:15 AM 82.4 °F 88.4 °F 73.6 °F 75% 29.92 in 7.0 mi South 9.2 mph 16.1 mph N/A   Clear
6:35 AM 82.4 °F 88.4 °F 73.9 °F 75% 29.92 in 7.0 mi SSE 10.4 mph - N/A   Clear
6:55 AM 82.0 °F 88.1 °F 74.3 °F 77% 29.92 in 7.0 mi SSE 9.2 mph - N/A   Clear
7:15 AM 81.9 °F 88.0 °F 74.3 °F 78% 29.92 in 5.0 mi SSE 9.2 mph - N/A   Haze
7:35 AM 82.0 °F 88.4 °F 74.5 °F 78% 29.92 in 7.0 mi SSE 10.4 mph - N/A   Clear
7:55 AM 82.9 °F 89.7 °F 74.3 °F 75% 29.93 in 7.0 mi SSE 13.8 mph 18.4 mph N/A   Clear
8:15 AM 83.7 °F 90.7 °F 74.1 °F 73% 29.93 in 5.0 mi SSE 13.8 mph - N/A   Haze
8:35 AM 85.1 °F 92.2 °F 73.4 °F 68% 29.94 in 5.0 mi South 16.1 mph 21.9 mph N/A   Haze
8:55 AM 86.2 °F 93.4 °F 73.0 °F 65% 29.94 in 4.0 mi SSE 12.7 mph 24.2 mph N/A   Haze
9:15 AM 87.8 °F 94.7 °F 72.5 °F 60% 29.94 in 4.0 mi South 16.1 mph 24.2 mph N/A   Haze
9:35 AM 88.7 °F 95.2 °F 71.8 °F 57% 29.94 in 5.0 mi South 16.1 mph 24.2 mph N/A   Haze
9:55 AM 89.8 °F 96.0 °F 71.1 °F 54% 29.95 in 5.0 mi South 16.1 mph 27.6 mph N/A   Haze
10:15 AM 91.4 °F 96.8 °F 69.8 °F 49% 29.94 in 5.0 mi SSE 21.9 mph 27.6 mph N/A   Haze
10:35 AM 92.3 °F 96.1 °F 67.8 °F 44% 29.94 in 5.0 mi South 19.6 mph 29.9 mph N/A   Haze
10:55 AM 93.6 °F 95.9 °F 64.9 °F 39% 29.93 in 5.0 mi South 23.0 mph 29.9 mph N/A   Haze
11:15 AM 94.8 °F 97.1 °F 64.6 °F 37% 29.94 in 5.0 mi SSE 24.2 mph 32.2 mph N/A   Haze
11:35 AM 95.9 °F 98.0 °F 64.4 °F 35% 29.93 in 5.0 mi South 21.9 mph 28.8 mph N/A   Haze
11:55 AM 97.0 °F 97.8 °F 62.1 °F 31% 29.93 in 5.0 mi South 21.9 mph 29.9 mph N/A   Haze
12:15 PM 98.4 °F 99.7 °F 61.9 °F 30% 29.92 in 4.0 mi SSE 26.5 mph 29.9 mph N/A   Haze
12:35 PM 99.0 °F 100.0 °F 61.9 °F 29% 29.92 in 5.0 mi South 23.0 mph 29.9 mph N/A   Haze
12:55 PM 99.7 °F 100.1 °F 60.1 °F 27% 29.91 in 4.0 mi South 20.7 mph 28.8 mph N/A   Haze
1:15 PM 101.1 °F 100.8 °F 58.5 °F 24% 29.90 in 5.0 mi South 21.9 mph 32.2 mph N/A   Haze
1:35 PM 102.6 °F 103.0 °F 59.0 °F 24% 29.89 in 5.0 mi SSE 18.4 mph 27.6 mph N/A   Haze
1:55 PM 102.7 °F 102.7 °F 58.5 °F 23% 29.88 in 5.0 mi South 19.6 mph 28.8 mph N/A   Haze
2:15 PM 103.8 °F 103.2 °F 56.8 °F 21% 29.87 in 5.0 mi SSE 20.7 mph 26.5 mph N/A   Haze
2:35 PM 104.0 °F 103.4 °F 56.7 °F 21% 29.86 in 5.0 mi SSE 21.9 mph 28.8 mph N/A   Haze
2:55 PM 105.1 °F 104.4 °F 55.8 °F 20% 29.86 in 5.0 mi South 21.9 mph 25.3 mph N/A   Haze
3:15 PM 105.1 °F 104.4 °F 55.8 °F 20% 29.85 in 7.0 mi SSE 16.1 mph 21.9 mph N/A   Clear
3:35 PM 106.0 °F 105.8 °F 56.5 °F 20% 29.84 in 5.0 mi SSE 20.7 mph 27.6 mph N/A   Haze
3:55 PM 105.4 °F 104.3 °F 54.9 °F 19% 29.83 in 5.0 mi South 13.8 mph 23.0 mph N/A   Haze
4:15 PM 104.0 °F 107.4 °F 64.0 °F 27% 29.84 in 5.0 mi SSE 19.6 mph 27.6 mph N/A   Haze
4:35 PM 103.8 °F 107.0 °F 64.0 °F 27% 29.83 in 5.0 mi SSE 18.4 mph 24.2 mph N/A   Haze
4:55 PM 103.1 °F 105.8 °F 63.5 °F 27% 29.82 in 5.0 mi SSE 20.7 mph 26.5 mph N/A   Haze
5:15 PM 102.4 °F 105.2 °F 63.7 °F 28% 29.82 in 5.0 mi SE 23.0 mph 27.6 mph N/A   Haze
5:35 PM 102.2 °F 105.5 °F 64.2 °F 29% 29.82 in 5.0 mi SE 21.9 mph 27.6 mph N/A   Haze
5:55 PM 100.4 °F 103.6 °F 64.8 °F 31% 29.82 in 5.0 mi SE 25.3 mph 29.9 mph N/A   Haze
6:15 PM 99.7 °F 102.9 °F 65.3 °F 32% 29.82 in 5.0 mi SE 20.7 mph 26.5 mph N/A   Haze
6:35 PM 98.4 °F 101.9 °F 65.3 °F 34% 29.81 in 5.0 mi SE 18.4 mph 25.3 mph N/A   Haze
6:55 PM 97.7 °F 100.0 °F 64.4 °F 33% 29.82 in 4.0 mi SSE 18.4 mph 25.3 mph N/A   Haze
7:15 PM 96.4 °F 98.9 °F 64.8 °F 35% 29.82 in 5.0 mi SSE 19.6 mph 25.3 mph N/A   Haze
7:35 PM 94.6 °F 96.8 °F 64.9 °F 37% 29.82 in 5.0 mi SSE 18.4 mph 21.9 mph N/A   Haze
7:55 PM 93.2 °F 95.8 °F 65.3 °F 40% 29.82 in 7.0 mi SE 17.3 mph 21.9 mph N/A   Clear
8:15 PM 91.8 °F 95.1 °F 66.7 °F 44% 29.82 in 4.0 mi SSE 17.3 mph 24.2 mph N/A   Haze
8:35 PM 90.7 °F 94.1 °F 67.5 °F 46% 29.84 in 7.0 mi SE 16.1 mph 23.0 mph N/A   Clear
8:55 PM 89.6 °F 93.9 °F 68.7 °F 50% 29.84 in 7.0 mi SE 15.0 mph 18.4 mph N/A   Clear
9:15 PM 88.7 °F 93.5 °F 69.8 °F 53% 29.85 in 7.0 mi SE 11.5 mph - N/A   Clear
9:35 PM 87.8 °F 93.4 °F 70.7 °F 57% 29.86 in 7.0 mi SSE 17.3 mph - N/A   Clear
9:55 PM 87.1 °F 92.8 °F 71.4 °F 59% 29.86 in 7.0 mi SE 16.1 mph 21.9 mph N/A   Clear
10:15 PM 86.5 °F 92.9 °F 72.1 °F 62% 29.87 in 7.0 mi SSE 17.3 mph 23.0 mph N/A   Clear
10:35 PM 86.0 °F 92.6 °F 72.5 °F 64% 29.87 in 7.0 mi SSE 13.8 mph 25.3 mph N/A   Clear
10:55 PM 85.6 °F 92.2 °F 72.9 °F 65% 29.88 in 7.0 mi SSE 16.1 mph 25.3 mph N/A   Clear
11:15 PM 85.1 °F 92.2 °F 73.4 °F 68% 29.89 in 7.0 mi SSE 16.1 mph 21.9 mph N/A   Clear
11:35 PM 85.1 °F 92.9 °F 74.3 °F 70% 29.89 in 7.0 mi SSE 13.8 mph 21.9 mph N/A   Clear
11:55 PM 84.6 °F 92.4 °F 74.5 °F 72% 29.90 in 7.0 mi SSE 11.5 mph 18.4 mph N/A   Clear